Regional Weather Roundup
Issued by NWS

Home | Current Version | Previous Version | Text Only | Print | Product List | Glossary Off
Versions: 1 2 3 4 5 6 7 8 9 10 11 12 13 14 15 16 17 18 19 20 21 22 23 24 25 26 27 28 29 30 31 32 33 34 35 36 37 38 39 40 41 42 43 44 45 46 47 48 49 50

000
ASUS45 KBOU 080007
RWRCO

WEATHER ROUNDUP FOR COLORADO
NATIONAL WEATHER SERVICE DENVER/BOULDER CO
500 PM MST SUN FEB 07 2016

NOTE: "FAIR" INDICATES FEW OR NO CLOUDS BELOW 12000 FEET WITH NO
SIGNIFICANT WEATHER AND/OR OBSTRUCTIONS TO VISIBILITY.

COZ001>005-013-030-031-080100-
...NORTHWEST COLORADO...

CITY           SKY/WX    TMP DP  RH WIND       PRES   REMARKS
CRAIG          CLOUDY    18  11  74 CALM      30.48R
HAYDEN         CLOUDY    25  12  58 CALM      30.47R
MEEKER         CLOUDY    29  19  66 CALM      30.46R
MOUNT WERNER   NOT AVBL
STEAMBOAT SPGS CLOUDY    29  16  59 W6        30.45R WCI  23
WALDEN         CLOUDY    27  12  54 SW12      30.38R WCI  16
$$

COZ006>008-011-080100-
...WEST CENTRAL VALLEYS...

CITY           SKY/WX    TMP DP  RH WIND       PRES   REMARKS
GRAND JUNCTION CLOUDY    27  20  75 NE6       30.48F WCI  20
MONTROSE       CLOUDY    36  19  50 CALM      30.48F
EAGLE          CLEAR     37  18  44 SW12      30.44R
RIFLE          CLOUDY    29  16  58 S7        30.47R WCI  22
DELTA          CLOUDY    37  19  48 CALM      30.49S
NUCLA          CLOUDY    37  21  52 CALM      30.46F
$$

COZ017>023-064>068-080100-
...SOUTHWEST COLORADO...

CITY           SKY/WX    TMP DP  RH WIND       PRES   REMARKS
DURANGO        CLOUDY    34  17  50 E6        30.37R WCI  29
CORTEZ         CLEAR     45  20  36 NW10      30.36F
PAGOSA SPRINGS CLOUDY    38  18  45 SW3       30.36S
TELLURIDE      CLOUDY    37  11  33 W7        30.45S
WOLF CREEK PAS CLOUDY    28   1  31 CALM      30.46F
$$

COZ009-010-012-014-032>034-037-058>063-080100-
...CENTRAL COLORADO...

CITY           SKY/WX    TMP DP  RH WIND       PRES   REMARKS
ASPEN          CLOUDY    28  15  58 CALM      30.44R
BUENA VISTA    CLOUDY    36  12  37 NW22G31   30.28R
COPPER MTN     CLOUDY    19  10  68 NW18G25   30.38S WCI   4
BERTHOUD PASS  FAIR      10   0  61 NW38G58   30.27R WCI -14
COTTONWOOD PAS CLOUDY    34   1  25 W25G47    30.26R WCI  21
GUNNISON       CLOUDY     9   1  72 SE5       30.49F WCI   0
KREMMLING      CLOUDY    34  14  44 NW10      30.43R WCI  26
LEADVILLE      CLOUDY    25   8  48 NW16G23   30.40R WCI  12
MONARCH PASS   CLOUDY    18  10  73 MISG      30.47R
SALIDA         NOT AVBL
SUNLIGHT       CLOUDY    23  18  80 CALM        N/A
WILKERSON PASS CLOUDY    27   3  36 MISG      30.27F
$$

COZ069>075-080100-
...SAN LUIS VALLEY/SANGRE DE CRISTO MOUNTAINS...

CITY           SKY/WX    TMP DP  RH WIND       PRES   REMARKS
ALAMOSA        CLOUDY    38  19  46 W7        30.33S
LA VETA PASS   CLOUDY    30  10  43 MISG      30.29F
SAGUACHE       CLOUDY    36  18  48 N16G23    30.35R
$$

COZ035-036-038>040-080100-
...NORTHERN COLORADO FRONT RANGE...

CITY           SKY/WX    TMP DP  RH WIND       PRES   REMARKS
DENVER INTL AP CLOUDY    26  19  74 E15       30.30R WCI  14
DMNS CITY PARK   N/A     28  20  70 E13G22    30.31R WCI  18
AURORA         MOCLDY    25  20  81 E16       30.30R WCI  12
FRONT RANGE AP MOCLDY    25  19  80 E10       30.31R WCI  15
ERIE MUNI ARPT CLOUDY    30  22  70 E10G20    30.32R WCI  21
BOULDER MUN AP CLOUDY    30  23  74 E8        30.31R WCI  23
CENTENNIAL     CLOUDY    26  19  74 E15       30.28R WCI  14
BROOMFIELD     NOT AVBL
FORT COLLINS   CLOUDY    28  21  74 S9        30.32R WCI  20
LONGMONT       CLOUDY    32  23  68 SE8       30.35R WCI  25
$$

COZ041-046-047-076>085-087-088-080100-
...PIKES PEAK/PALMER DIVIDE AND SOUTHERN FOOTHILLS...

CITY           SKY/WX    TMP DP  RH WIND       PRES   REMARKS
COLO. SPRINGS  CLOUDY    27  19  72 SE5       30.30R WCI  22
A. F. ACADEMY  CLOUDY    28  20  69 S10       30.26R WCI  19
SCHRIEVER AFB  FAIR      26  19  76 SW9       30.29R WCI  17
ELLICOTT       NOT AVBL
FALCON         CLOUDY    26  19  72 W7        30.28R WCI  19
FORT CARSON    CLOUDY    28  22  78 S8        30.28R WCI  19
LIMON          CLOUDY    24  19  81 N7        30.32R WCI  16
MONUMENT HILL  CLOUDY    21  18  86 E7        30.27R WCI  13
TRINIDAD       CLEAR     35  22  58 E8        30.28S WCI  29
$$

COZ042>045-048>051-090-091-080100-
...NORTHEAST COLORADO...

CITY           SKY/WX    TMP DP  RH WIND       PRES   REMARKS
GREELEY ARPT   CLOUDY    30  23  74 E8        30.32R WCI  23
AKRON          CLOUDY    27  17  66 NW21      30.31R WCI  13
BURLINGTON     CLOUDY    31  16  54 NW21      30.30R WCI  18
WRAY           CLOUDY    33  16  51 NW24G31   30.30R WCI  20
STERLING       CLOUDY    32  19  59 N24G32    30.28R WCI  19
HOLYOKE        CLEAR     34  18  51 NW23G29   30.29R WCI  22
FORT MORGAN    CLOUDY    29  19  64 N16       30.33S WCI  17
$$

COZ086-089-092>099-080100-
...SOUTHEAST COLORADO...

CITY           SKY/WX    TMP DP  RH WIND       PRES   REMARKS
PUEBLO         CLEAR     35  22  58 E12       30.31R WCI  27
LA JUNTA       CLEAR     35  22  58 NE9       30.35R WCI  28
LAMAR          CLEAR     36  17  46 N15       30.34R
SPRINGFIELD      N/A     33  19  56 N17       30.31R WCI  22
$$



USA.gov is the U.S. government's official web portal to all federal, state and local government web resources and services.